This is the latest recevied weather packets stored in our database for station/object KG5MMT-15. If no packets are shown the sender has not sent any weather packets the latest 10 day(s).
| Time | Temp. | Humidity | Pressure | Rain* | Wind** | Luminosity | Snow |
|---|---|---|---|---|---|---|---|
| 1778088134 | 12.78° C | 40% | 0 hPa | 0 mm | - | - | - |
| 1778087835 | 12.22° C | 43% | 0 hPa | 0 mm | - | - | - |
| 1778087535 | 11.11° C | 42% | 0 hPa | 0 mm | - | - | - |
| 1778087235 | 12.22° C | 42% | 0 hPa | 0 mm | - | - | - |
| 1778086935 | 12.22° C | 43% | 0 hPa | 0 mm | - | - | - |
| 1778086635 | 11.67° C | 46% | 0 hPa | 0 mm | - | - | - |
| 1778086335 | 11.11° C | 45% | 0 hPa | 0 mm | - | - | - |
| 1778086035 | 11.67° C | 45% | 0 hPa | 0 mm | - | - | - |
| 1778085735 | 11.11° C | 46% | 0 hPa | 0 mm | - | - | - |
| 1778085435 | 11.11° C | 47% | 0 hPa | 0 mm | - | - | - |
| 1778085135 | 10.56° C | 47% | 0 hPa | 0 mm | - | - | - |
| 1778084835 | 10.56° C | 47% | 0 hPa | 0 mm | - | - | - |
| 1778084535 | 10° C | 48% | 0 hPa | 0 mm | - | - | - |
| 1778084235 | 10° C | 49% | 0 hPa | 0 mm | - | - | - |
| 1778083935 | 10.56° C | 48% | 0 hPa | 0 mm | - | - | - |
| 1778083635 | 10° C | 49% | 0 hPa | 0 mm | - | - | - |
| 1778083335 | 10° C | 49% | 0 hPa | 0 mm | - | - | - |
| 1778083035 | 9.44° C | 49% | 0 hPa | 0 mm | - | - | - |
| 1778082735 | 9.44° C | 51% | 0 hPa | 0 mm | - | - | - |
| 1778082435 | 9.44° C | 51% | 0 hPa | 0 mm | - | - | - |
| 1778082135 | 9.44° C | 49% | 0 hPa | 0 mm | - | - | - |
| 1778081835 | 10° C | 50% | 0 hPa | 0 mm | - | - | - |
| 1778081535 | 10° C | 52% | 0 hPa | 0 mm | - | - | - |
| 1778081235 | 9.44° C | 52% | 0 hPa | 0 mm | - | - | - |
| 1778080935 | 8.89° C | 51% | 0 hPa | 0 mm | - | - | - |
* Rain latest hour (hover to see other rain measurements)
** Current wind speed in m/s (hover to see current wind gust speed)